• In Uzbekistan
  • List of Countries
  • For 7 days
  • Water Temperature
  • Weather Map
  • Weather Widgets
  • user-avatar
    Login

    Hourly Weather Guiyang

    Today, 18 August, Sunday

    Time Temperature Precipitation Wind Pressure Humidity
    00:00 +23°C° 0 mm 2 mps 658 mmHg 92%
    01:00 +23°C° 0 mm 1 mps 658 mmHg 93%
    02:00 +22°C° 0 mm 1 mps 657 mmHg 93%
    03:00 +22°C° 0 mm 1 mps 657 mmHg 94%
    04:00 +22°C° 0 mm 1 mps 657 mmHg 94%
    05:00 +22°C° 0 mm 1 mps 657 mmHg 93%
    06:00 +23°C° 0 mm 1 mps 658 mmHg 92%
    07:00 +24°C° 0 mm 1 mps 658 mmHg 90%
    08:00 +26°C° 0 mm 2 mps 659 mmHg 83%
    09:00 +27°C° 0 mm 3 mps 659 mmHg 76%
    10:00 +29°C° 0 mm 4 mps 659 mmHg 69%
    11:00 +29°C° 0 mm 3 mps 659 mmHg 67%
    12:00 +30°C° 0 mm 3 mps 659 mmHg 65%
    13:00 +31°C° 0 mm 3 mps 658 mmHg 62%
    14:00 +30°C° 0.2 mm 3 mps 658 mmHg 65%
    15:00 +30°C° 0.2 mm 3 mps 657 mmHg 68%
    16:00 +29°C° 0.2 mm 3 mps 657 mmHg 71%
    17:00 +28°C° 0 mm 3 mps 657 mmHg 78%
    18:00 +26°C° 0 mm 3 mps 657 mmHg 84%
    19:00 +25°C° 0 mm 2 mps 656 mmHg 90%
    20:00 +24°C° 0 mm 2 mps 657 mmHg 91%
    21:00 +24°C° 0 mm 2 mps 658 mmHg 92%
    22:00 +23°C° 0 mm 2 mps 658 mmHg 93%
    23:00 +23°C° 0 mm 2 mps 658 mmHg 93%

    Tomorrow, 19 August, Monday

    Time Temperature Precipitation Wind Pressure Humidity
    00:00 +23°C° 0 mm 2 mps 658 mmHg 94%
    01:00 +23°C° 0 mm 1 mps 658 mmHg 95%
    02:00 +22°C° 0 mm 1 mps 657 mmHg 95%
    03:00 +22°C° 0 mm 1 mps 657 mmHg 95%
    04:00 +22°C° 0 mm 1 mps 657 mmHg 95%
    05:00 +23°C° 0 mm 1 mps 657 mmHg 92%
    06:00 +23°C° 0 mm 1 mps 658 mmHg 90%
    07:00 +24°C° 0 mm 1 mps 658 mmHg 88%
    08:00 +26°C° 0 mm 2 mps 659 mmHg 80%
    09:00 +27°C° 0 mm 2 mps 659 mmHg 72%
    10:00 +29°C° 0 mm 3 mps 660 mmHg 64%
    11:00 +29°C° 0 mm 3 mps 659 mmHg 63%
    12:00 +30°C° 0 mm 3 mps 659 mmHg 62%
    13:00 +32°C° 0 mm 4 mps 659 mmHg 62%
    14:00 +30°C° 0 mm 4 mps 658 mmHg 63%
    15:00 +30°C° 0 mm 4 mps 658 mmHg 63%
    16:00 +30°C° 0 mm 4 mps 658 mmHg 64%
    17:00 +28°C° 0 mm 3 mps 657 mmHg 71%
    18:00 +27°C° 0 mm 3 mps 657 mmHg 78%
    19:00 +25°C° 0 mm 2 mps 657 mmHg 86%
    20:00 +25°C° 0.1 mm 2 mps 658 mmHg 87%
    21:00 +24°C° 0.1 mm 2 mps 658 mmHg 88%
    22:00 +24°C° 0.1 mm 2 mps 659 mmHg 90%
    23:00 +24°C° 0.1 mm 2 mps 659 mmHg 90%

    Day after tomorrow, 20 August, Tuesday

    Time Temperature Precipitation Wind Pressure Humidity
    00:00 +23°C° 0.1 mm 1 mps 659 mmHg 90%
    01:00 +23°C° 0.1 mm 1 mps 658 mmHg 89%
    02:00 +23°C° 0 mm 1 mps 658 mmHg 90%
    03:00 +20°C° 0 mm 0 mps 658 mmHg 90%
    04:00 +20°C° 0 mm 0 mps 658 mmHg 91%
    05:00 +21°C° 0 mm 0 mps 658 mmHg 89%
    06:00 +21°C° 0 mm 0 mps 658 mmHg 87%
    07:00 +22°C° 0 mm 0 mps 659 mmHg 86%
    08:00 +26°C° 0 mm 1 mps 659 mmHg 79%
    09:00 +27°C° 0 mm 2 mps 660 mmHg 72%
    10:00 +29°C° 0 mm 2 mps 660 mmHg 65%
    11:00 +29°C° 0.2 mm 2 mps 660 mmHg 64%
    12:00 +29°C° 0.2 mm 2 mps 659 mmHg 64%
    13:00 +30°C° 0.2 mm 2 mps 659 mmHg 63%
    14:00 +30°C° 0.7 mm 2 mps 659 mmHg 65%
    15:00 +29°C° 0.7 mm 2 mps 658 mmHg 67%
    16:00 +29°C° 0.7 mm 2 mps 658 mmHg 68%
    17:00 +27°C° 0.1 mm 2 mps 658 mmHg 73%
    18:00 +26°C° 0.1 mm 2 mps 658 mmHg 77%
    19:00 +24°C° 0.1 mm 2 mps 657 mmHg 82%
    20:00 +24°C° 0 mm 2 mps 658 mmHg 83%
    21:00 +23°C° 0 mm 2 mps 659 mmHg 84%
    22:00 +23°C° 0 mm 2 mps 659 mmHg 85%
    23:00 +23°C° 0 mm 1 mps 659 mmHg 86%

    21 August, Wednesday

    Time Temperature Precipitation Wind Pressure Humidity
    00:00 +22°C° 0 mm 1 mps 658 mmHg 86%
    01:00 +20°C° 0 mm 0 mps 658 mmHg 87%
    02:00 +20°C° 0 mm 0 mps 658 mmHg 87%
    03:00 +20°C° 0 mm 0 mps 658 mmHg 88%
    04:00 +19°C° 0 mm 0 mps 657 mmHg 88%
    05:00 +20°C° 0 mm 0 mps 658 mmHg 86%
    06:00 +21°C° 0 mm 0 mps 658 mmHg 84%
    07:00 +22°C° 0 mm 0 mps 659 mmHg 83%
    08:00 +25°C° 0.1 mm 1 mps 659 mmHg 76%
    09:00 +27°C° 0.1 mm 1 mps 660 mmHg 69%
    10:00 +28°C° 0.1 mm 1 mps 660 mmHg 61%
    11:00 +29°C° 0.2 mm 2 mps 660 mmHg 60%
    12:00 +30°C° 0.2 mm 2 mps 659 mmHg 58%
    13:00 +30°C° 0.2 mm 2 mps 659 mmHg 56%
    14:00 +29°C° 0.5 mm 2 mps 659 mmHg 59%
    15:00 +29°C° 0.5 mm 3 mps 658 mmHg 62%
    16:00 +28°C° 0.5 mm 3 mps 658 mmHg 65%
    17:00 +27°C° 0.3 mm 2 mps 658 mmHg 70%
    18:00 +25°C° 0.3 mm 2 mps 658 mmHg 74%
    19:00 +24°C° 0.3 mm 1 mps 658 mmHg 79%
    20:00 +23°C° 0 mm 1 mps 659 mmHg 80%
    21:00 +23°C° 0 mm 1 mps 659 mmHg 81%
    22:00 +22°C° 0 mm 1 mps 660 mmHg 82%
    23:00 +20°C° 0.1 mm 0 mps 659 mmHg 82%

    22 August, Thursday

    Time Temperature Precipitation Wind Pressure Humidity
    00:00 +20°C° 0.1 mm 0 mps 659 mmHg 83%
    01:00 +19°C° 0.1 mm 0 mps 659 mmHg 84%
    02:00 +19°C° 0 mm 0 mps 659 mmHg 85%
    03:00 +19°C° 0 mm 0 mps 658 mmHg 86%
    04:00 +19°C° 0 mm 0 mps 658 mmHg 86%
    05:00 +19°C° 0 mm 0 mps 659 mmHg 85%
    06:00 +20°C° 0 mm 0 mps 659 mmHg 83%
    07:00 +21°C° 0 mm 0 mps 660 mmHg 81%
    08:00 +23°C° 0 mm 0 mps 660 mmHg 73%
    09:00 +27°C° 0 mm 1 mps 661 mmHg 64%
    10:00 +29°C° 0 mm 1 mps 661 mmHg 56%
    11:00 +29°C° 0.2 mm 1 mps 661 mmHg 55%
    12:00 +30°C° 0.2 mm 2 mps 660 mmHg 53%
    13:00 +30°C° 0.2 mm 2 mps 660 mmHg 52%
    14:00 +29°C° 0.5 mm 2 mps 659 mmHg 56%
    15:00 +29°C° 0.5 mm 2 mps 659 mmHg 59%
    16:00 +28°C° 0.5 mm 2 mps 658 mmHg 63%
    17:00 +27°C° 0.1 mm 2 mps 658 mmHg 68%
    18:00 +25°C° 0.1 mm 2 mps 658 mmHg 74%
    19:00 +24°C° 0.1 mm 1 mps 658 mmHg 79%
    20:00 +23°C° 0 mm 1 mps 659 mmHg 81%
    21:00 +23°C° 0 mm 1 mps 660 mmHg 83%
    22:00 +22°C° 0 mm 1 mps 660 mmHg 84%
    23:00 +22°C° 0 mm 1 mps 660 mmHg 85%

    23 August, Friday

    Time Temperature Precipitation Wind Pressure Humidity
    00:00 +22°C° 0 mm 1 mps 660 mmHg 86%
    01:00 +19°C° 0 mm 0 mps 659 mmHg 88%
    02:00 +19°C° 0 mm 0 mps 659 mmHg 88%
    03:00 +19°C° 0 mm 0 mps 659 mmHg 88%
    04:00 +19°C° 0 mm 0 mps 659 mmHg 89%
    05:00 +20°C° 0 mm 0 mps 659 mmHg 86%
    06:00 +20°C° 0 mm 0 mps 660 mmHg 84%
    07:00 +21°C° 0 mm 0 mps 660 mmHg 82%
    08:00 +25°C° 0 mm 1 mps 661 mmHg 75%
    09:00 +27°C° 0 mm 1 mps 661 mmHg 67%
    10:00 +29°C° 0 mm 2 mps 662 mmHg 60%
    11:00 +29°C° 0 mm 2 mps 661 mmHg 58%
    12:00 +30°C° 0 mm 2 mps 661 mmHg 55%
    13:00 +31°C° 0 mm 1 mps 660 mmHg 53%
    14:00 +30°C° 0.2 mm 2 mps 660 mmHg 57%
    15:00 +29°C° 0.2 mm 2 mps 659 mmHg 61%
    16:00 +29°C° 0.2 mm 3 mps 659 mmHg 65%
    17:00 +27°C° 0 mm 3 mps 659 mmHg 70%
    18:00 +26°C° 0 mm 2 mps 659 mmHg 75%
    19:00 +24°C° 0 mm 2 mps 659 mmHg 80%
    20:00 +24°C° 0 mm 1 mps 659 mmHg 80%
    21:00 +23°C° 0 mm 1 mps 660 mmHg 81%
    22:00 +21°C° 0 mm 0 mps 660 mmHg 82%
    23:00 +21°C° 0 mm 0 mps 660 mmHg 83%
    Show more